Location: Limerick
(52.6800°N, 8.6400°W)
Time: 20:12:42
(UTC+00:00)

ISS - All Passes

Search period start: 28 January 2015 00:00
Search period end: 07 February 2015 00:00
Orbit: 402 x 410 km, 51.6° (Epoch: 28 January)

Date Brightness Start Highest point End Pass type
(mag) Time Alt. Az. Time Alt. Az. Time Alt. Az.
28 Jan - 00:14:44 10° SW 00:17:46 34° SSE 00:20:49 10° E night (unlit)
28 Jan - 01:50:45 10° W 01:54:03 73° S 01:57:22 10° E night (unlit)
28 Jan - 03:27:13 10° W 03:30:29 58° SSW 03:33:45 10° ESE night (unlit)
28 Jan - 05:04:02 10° W 05:06:35 20° SSW 05:09:06 10° SSE visible
28 Jan - 23:23:21 10° SSW 23:26:05 24° SSE 23:28:52 10° E night (unlit)
29 Jan - 00:59:00 10° WSW 01:02:16 64° S 01:05:33 10° E night (unlit)
29 Jan - 02:35:24 10° W 02:38:42 69° S 02:42:00 10° ESE night (unlit)
29 Jan - 04:12:01 10° W 04:14:56 29° SSW 04:17:51 10° SSE night (unlit)
29 Jan - 22:32:15 10° S 22:34:27 17° SE 22:36:42 10° ESE night (unlit)
30 Jan - 00:07:16 10° WSW 00:10:28 52° SSE 00:13:43 10° E night (unlit)
30 Jan - 01:43:34 10° W 01:46:53 75° S 01:50:11 10° E night (unlit)
30 Jan - 03:20:04 10° W 03:23:13 40° SSW 03:26:20 10° SE night (unlit)
30 Jan - 04:57:53 10° WSW 04:59:06 11° SW 05:00:14 10° SSW night (unlit)
30 Jan - 21:41:52 10° SSE 21:42:50 11° SE 21:43:53 10° ESE night (unlit)
30 Jan - 23:15:36 10° SW 23:18:42 39° SSE 23:21:49 10° E night (unlit)
31 Jan - 00:51:44 10° W 00:55:02 75° S 00:58:21 10° E night (unlit)
31 Jan - 02:28:11 10° W 02:31:26 52° SSW 02:34:40 10° ESE night (unlit)
31 Jan - 04:05:10 10° W 04:07:28 17° SW 04:09:44 10° S night (unlit)
31 Jan - 22:24:05 10° SSW 22:26:57 28° SSE 22:29:51 10° E night (unlit)
31 Jan - 23:59:53 10° WSW 00:03:10 68° S 00:06:28 10° E night (unlit)
01 Feb - 01:36:19 10° W 01:39:35 65° SSW 01:42:53 10° ESE night (unlit)
01 Feb - 03:12:59 10° W 03:15:47 25° SSW 03:18:33 10° SSE night (unlit)
01 Feb - 21:32:47 10° SSW 21:35:13 20° SSE 21:37:43 10° E night (unlit)
01 Feb - 23:08:04 10° WSW 23:11:19 57° SSE 23:14:34 10° E night (unlit)
02 Feb - 00:44:25 10° W 00:47:43 73° S 00:51:01 10° E night (unlit)
02 Feb - 02:20:57 10° W 02:24:01 35° SSW 02:27:04 10° SE night (unlit)
02 Feb - 20:41:55 10° S 20:43:32 13° SE 20:45:12 10° ESE night (unlit)
02 Feb - 22:16:19 10° SW 22:19:27 44° SSE 22:22:37 10° E night (unlit)
02 Feb - 23:52:31 10° W 23:55:49 76° S 23:59:07 10° E night (unlit)
03 Feb - 01:28:59 10° W 01:32:11 47° SSW 01:35:23 10° SE night (unlit)
03 Feb - 03:06:11 10° WSW 03:08:10 15° SW 03:10:05 10° S night (unlit)
03 Feb - 21:24:39 10° SW 21:27:38 32° SSE 21:30:37 10° E night (unlit)
03 Feb - 23:00:36 10° WSW 23:03:53 72° S 23:07:11 10° E night (unlit)
04 Feb - 00:37:02 10° W 00:40:19 60° SSW 00:43:34 10° ESE night (unlit)
04 Feb - 02:13:48 10° W 02:16:26 22° SSW 02:19:01 10° SSE night (unlit)
04 Feb - 20:33:11 10° SSW 20:35:49 23° SSE 20:38:29 10° E visible
04 Feb - 22:08:42 10° WSW 22:11:57 62° SSE 22:15:13 10° E night (unlit)
04 Feb - 23:45:05 10° W 23:48:22 71° S 23:51:40 10° ESE night (unlit)
05 Feb - 01:21:39 10° W 01:24:37 31° SSW 01:27:35 10° SE night (unlit)
05 Feb - 19:42:02 10° S 19:44:02 15° SE 19:46:06 10° ESE visible
05 Feb - 21:16:51 10° WSW 21:20:02 49° SSE 21:23:14 10° E night (unlit)
05 Feb - 22:53:06 10° W 22:56:24 76° S 22:59:42 10° E night (unlit)
06 Feb - 00:29:36 10° W 00:32:45 42° SSW 00:35:53 10° SE night (unlit)
06 Feb - 02:07:07 10° WSW 02:08:40 13° SW 02:10:08 10° SSW night (unlit)
06 Feb - 20:25:04 10° SW 20:28:07 36° SSE 20:31:11 10° E visible
06 Feb - 22:01:08 10° W 22:04:24 74° S 22:07:43 10° E night (unlit)
06 Feb - 23:37:35 10° W 23:40:49 55° SSW 23:44:03 10° ESE night (unlit)
